AirNav   Air Wisconsin pilot careers
 
 443 users online  

IL44 Arrow Heliport
Fox Lake, Illinois, USA

GOING TO FOX LAKE?


FAA INFORMATION EFFECTIVE 09 NOVEMBER 2017

Location

FAA Identifier: IL44
Lat/Long: 42-24-12.0740N / 088-11-15.3080W
42-24.201233N / 088-11.255133W
42.4033539 / -88.1875856
(estimated)
Elevation: 738 ft. / 225 m (estimated)
Variation: 01W (1985)
Time zone: UTC -6 (UTC -5 during Daylight Saving Time)
Zip code: 60020

Heliport Operations

Heliport use: Private use. Permission required prior to landing
Activation date: 06/1988
Control tower: no
ARTCC: CHICAGO CENTER
FSS: KANKAKEE FLIGHT SERVICE STATION
Attendance: UNATNDD
Wind indicator: yes
Segmented circle: no

Heliport Communications

WX ASOS at UGN (14 nm E): PHONE 847-782-0876
WX ASOS at ENW (16 nm NE): PHONE 262-652-7730
WX AWOS-3 at BUU (18 nm N): 114.5 (262-757-0907)

Nearby radio navigation aids

VOR radial/distance  VOR name  Freq  Var
OBKr318/15.1NORTHBROOK VOR/DME113.0002W
BUUr165/17.9BURBUN VOR/DME114.5001W
ORDr331/27.9CHICAGO O'HARE VOR/DME113.9002E
DPAr011/31.6DUPAGE VOR/DME108.4002E

 
NDB name  Hdg/Dist  Freq  Var  ID
CODEE219/11.838902WEN . -.
LAKE LAWN137/25.240402WLVV .-.. ...- ...-
JANESVILLE106/39.837503EJVL .--- ...- .-..

Heliport Services

Runway Information

Helipad H1

Dimensions: 60 x 60 ft. / 18 x 18 m
Surface: asphalt
Traffic pattern: leftleft

Heliport Ownership and Management from official FAA records

Ownership: Privately-owned
Owner: TRINSKI & SON
100 N ROUTE 12
FOX LAKE, IL 60020
Phone (847) 366-6453
Manager: MIKE TRINSKI
100 N ROUTE 12
FOX LAKE, IL 60020
Phone (847) 366-6453

Heliport Operational Statistics

Aircraft based on the field: 2
Single engine airplanes: 1
Helicopters: 1
    

Instrument Procedures

There are no published instrument procedures at IL44.

Some nearby airports with instrument procedures:

C81 - Campbell Airport (7 nm SE)
10C - Galt Field Airport (8 nm W)
3CK - Lake in the Hills Airport (13 nm SW)
KUGN - Waukegan Regional Airport (14 nm E)
C02 - Grand Geneva Resort Airport (16 nm NW)
KENW - Kenosha Regional Airport (16 nm NE)
KBUU - Burlington Municipal Airport (18 nm N)
 
Loc | Ops | Rwys | IFR | FBO | Links
Com | Nav | Svcs | Stats | Notes


 
Area around IL44 (Arrow Heliport)
 
Road maps at: MapQuest Bing Google
 
Aerial photo
No photo
 
Sectional chart

 
Airport distance calculator
Flying to Arrow Heliport? Find the distance to fly.

From to IL44

Sunrise and sunset
Times for 23-Nov-2017
 Local
(UTC-6)
 Zulu
(UTC)
Morning civil twilight06:2412:24
Sunrise06:5412:54
Sunset16:2422:24
Evening civil twilight16:5522:55

Current date and time
Zulu (UTC)  23-Nov-2017 12:51:38
Local (UTC-6)  23-Nov-2017 06:51:38
 
METAR
KUGN 
14nm E 
231155Z 21009KT 10SM OVC070 01/M07 A3002 RMK AO2 SLP179 T00061067 10006 21006 56018
KENW 
16nm NE 
231153Z AUTO 21009KT 10SM OVC065 01/M07 A3001 RMK AO2 SLP172 60000 T00111072 10011 20000 56016
KBUU 
18nm N 
231230Z AUTO 21008KT 10SM CLR 00/M03 A2999 RMK AO2 T00041035
KPWK 
21nm SE 
231152Z 22006KT 10SM OVC070 01/M07 A3006 RMK AO2 SLP187 T00111067 10011 20006 55018
KRAC 
27nm NE 
231153Z AUTO 20006KT 10SM OVC070 01/M07 A3003 RMK AO2 SLP175 T00061067 10006 20000 56015
KORD 
28nm SE 
231151Z 22008KT 10SM OVC070 01/M07 A3005 RMK AO2 SLP182 T00111067 10011 20000 55018
TAF
KENW 
16nm NE 
231121Z 2312/2412 21008KT P6SM OVC070 FM231500 23009KT P6SM SCT080 FM232300 24004KT P6SM SKC FM240900 21008KT P6SM FEW250
NOTAMs
Click for the latest NOTAMs
NOTAMs are issued by the DoD/FAA and will open in a separate window not controlled by AirNav.

 

 
 

Would you like to see your business listed on this page?

 If your business provides an interesting product or service to pilots, flight crews, aircraft, or users of the Arrow Heliport, you should consider listing it here.  To start the listing process, click on the button below
 
Add a business
 

Other Pages about Arrow Heliport

Update a link
 
Copyright © AirNav, LLC. All rights reserved. Privacy Policy  Contact